Air Resources Laboratory banner image
Air Resources Laboratory web site National Oceanic and Atmospheric Administration (NOAA)

fl roundup


Office: TBW

ASUS42 KTBW 181416
RWRFL
FLORIDA REGIONAL WEATHER ROUNDUP
NATIONAL WEATHER SERVICE TAMPA BAY RUSKIN FL
1000 AM EDT THU OCT 18 2018

NOTE: "FAIR" INDICATES FEW OR NO CLOUDS BELOW 12,000 FEET WITH NO
SIGNIFICANT WEATHER AND/OR OBSTRUCTIONS TO VISIBILITY.

FLZ001>010-012>015-112-114-115-181500-
PANHANDLE FLORIDA

CITY           SKY/WX    TMP DP  RH WIND       PRES   REMARKS
PENSACOLA      FAIR      69  51  52 NE7       30.26R
PENSACOLA NAS  MOSUNNY   71  51  49 NE13      30.26R
CRESTVIEW      FAIR      67  51  56 VRB5      30.28S
DUKE FIELD     MOSUNNY   67  50  53 NE9       30.26R
VALPARAISO     MOSUNNY   69  49  48 NE12      30.25R
MARY ESTHER    FAIR      69  38  32 NE9       30.24R
PANAMA CITY    NOT AVBL
TYNDALL AFB    FAIR      72  53  49 NE14      30.24R

STATION/POSITION SKY/WX   TEMP    WIND        PRES    WAVE   SWELL
                          AIR SEA DIR/SP/G            HT/PER HT/PER
                          (F)     (DEG/KT/KT) (MB)    (FT/S) (FT/S)
30.1N   87.6W              73      40/ 21/ 25 1024.1R   5/ 5   2/ 8
29.2N   88.2W                 82   50/ 17/ 21 1023.5R   6/ 6
PANAMA CITY BEAC           70 82   30/ 11/ 18 1024.2R
TOWER C                    75      50/ 22/ 23 1023.1R

$$
FLZ011-016>038-118-127-128-134-139-239-181500-
NORTH FLORIDA

CITY           SKY/WX    TMP DP  RH WIND       PRES   REMARKS
TALLAHASSEE    FAIR      72  57  59 NE6       30.25R
PERRY          FAIR      75  62  65 NE9       30.25R
LIVE OAK       MOSUNNY   75  63  64 N6        30.25R
CROSS CITY     FAIR      78  71  79 NE7       30.22S
LAKE CITY      FAIR      73  64  73 NE6       30.24S
GAINESVILLE    FAIR      80  74  81 E3        30.25S
MAYPORT NAS    FAIR      82  74  76 N12       30.22R
JACKSONVILLE   FAIR      78  70  76 N9        30.23R
JAX NAS        MOSUNNY   79  71  76 N9        30.23R
JAX CECIL      SUNNY     81  70  69 NE6       30.23R
ST AUGUSTINE   PTSUNNY   82  74  76 N12       30.23R
PALM COAST     CLOUDY    81  75  83 VRB3      30.21R

STATION/POSITION SKY/WX   TEMP    WIND        PRES    WAVE   SWELL
                          AIR SEA DIR/SP/G            HT/PER HT/PER
                          (F)     (DEG/KT/KT) (MB)    (FT/S) (FT/S)
SHELL POINT      NOT AVBL
KEATON BEACH               74      40/  9/ 14 1023.8R
CEDAR KEY                  76      70/  9/ 10 1022.8R
FERNANDINA                 78 82  350/  4/  8 1024.5R
30.7N   81.3W                 82                N/A     3/ 4
MAYPORT                    80 82   20/ 12/ 13 1023.8R
31.4N   80.9W              78 81   50/ 23/ 27 1023.8R   4/ 5   2/11
ST AUGUSTINE               80 82  330/  4/  5 1023.5R

$$
FLZ040-043>046-052-053-057-058-063-144-181500-
INTERIOR CENTRAL FLORIDA

CITY           SKY/WX    TMP DP  RH WIND       PRES   REMARKS
OCALA          FAIR      79  74  84 VRB5      30.23R
LEESBURG       FAIR      81  74  79 N6        30.21S
SANFORD        FAIR      81  77  88 N6        30.20S
ORLANDO EXEC   FAIR      82  76  81 NE7       30.20R
ORLANDO INTL   FAIR      81  74  79 E6        30.20R
KISSIMMEE      FAIR      83  75  77 E8        30.21R
WINTER HAVEN   FAIR      83  75  77 E7        30.21R
LAKELAND       MOSUNNY   82  73  74 E6        30.20R
BARTOW         MOSUNNY   79  77  94 E7        30.20R
SEBRING        FAIR      83  75  75 E7        30.18S
OKEECHOBEE     FAIR      81  75  83 E6        30.18R

$$
FLZ041-047-054-059-064-141-147-181500-
EAST CENTRAL FLORIDA

CITY           SKY/WX    TMP DP  RH WIND       PRES   REMARKS
DAYTONA BEACH  FAIR      82  78  88 CALM      30.21R
DELAND         FAIR      79  75  89 N5        30.21S
NEW SMYRNA BEA MOSUNNY   82  75  78 CALM      30.22R
JFK SPACE CTR  CLOUDY    84  75  73 NE5       30.19R
CAPE CANAVERAL FAIR      85  74  69 E6        30.18R
PATRICK AFB    FAIR      85  75  71 E8        30.18S
MELBOURNE      FAIR      86  74  67 E12       30.19R
VERO BEACH     FAIR      84  73  69 E9        30.19R
FT PIERCE      FAIR      85  73  67 E8        30.18R
STUART         MOSUNNY   84  73  70 E12       30.18R

STATION/POSITION SKY/WX   TEMP    WIND        PRES    WAVE   SWELL
                          AIR SEA DIR/SP/G            HT/PER HT/PER
                          (F)     (DEG/KT/KT) (MB)    (FT/S) (FT/S)
28.5N   80.2W              82      90/  8/ 10   N/A     2/ 8   2/ 8
28.9N   78.5W              82 84   60/  4/  6 1023.1R
TRIDENT PIER               83 84   50/  6/  9 1023.7R
28.4N   80.5W                 84                N/A     2/ 7
27.5N   80.2W                 83                N/A     2/13   2/13

$$
FLZ050-056-061-142-242-148-248-149-249-151-251-155-255-
160-260-181500-
WEST CENTRAL FLORIDA

CITY           SKY/WX    TMP DP  RH WIND       PRES   REMARKS
CRYSTAL RIVER  FAIR      81  73  78 E5        30.21R
BROOKSVILLE    FAIR      81  73  76 E5        30.21R
CLEARWATER AIR FAIR      79  73  83 E5        30.19R
ST PETE CLEARW NOT AVBL
TAMPA INTL     FAIR      83  72  69 SE6       30.19R
TAMPA EXEC     FAIR      79  73  83 E3        30.20R
PLANT CITY     FAIR      84  75  74 E3        30.21S
MACDILL AFB    FAIR      82  74  78 SE6       30.18R
PETER O KNIGHT CLOUDY    81  75  83 E5        30.19S
ST PETERSBURG  FAIR      81  76  84 E9        30.17R
SARASOTA       FAIR      81  76  84 E10       30.16R
VENICE         FAIR      82  77  83 E9        30.18R HAZE

STATION/POSITION SKY/WX   TEMP    WIND        PRES    WAVE   SWELL
                          AIR SEA DIR/SP/G            HT/PER HT/PER
                          (F)     (DEG/KT/KT) (MB)    (FT/S) (FT/S)
CLEARWATER BEACH           81 84  110/  5/  7 1022.3R
MIDDLE TAMPA BAY           79     120/  5/  7 1022.2R
VENICE                     81 84   90/  6/  8   N/A

$$
FLZ066-069-070-075>078-162-262-165-265-181500-
SOUTHWEST FLORIDA AND KEYS

CITY           SKY/WX    TMP DP  RH WIND       PRES   REMARKS
PUNTA GORDA    FAIR      82  75  79 E9        30.19R
FT MYERS       FAIR      81  76  84 E8        30.16R
SOUTHWEST INTL FAIR      82  76  81 E9        30.16R
NAPLES         FAIR      82  75  79 E10       30.15R
MARCO ISLAND   FAIR      82  76  81 E8        30.16R
IMMOKALEE      SUNNY     84  77  79 E10       30.16R
MARATHON       FAIR      85  73  67 E12       30.13R
KEY WEST NAS   FAIR      86  75  69 E14       30.12R HX  95
KEY WEST INTL  PTSUNNY   86  76  71 E15       30.13R HX  96

STATION/POSITION SKY/WX   TEMP    WIND        PRES    WAVE   SWELL
                          AIR SEA DIR/SP/G            HT/PER HT/PER
                          (F)     (DEG/KT/KT) (MB)    (FT/S) (FT/S)
NAPLES                     81 84              1021.0R
26.0N   85.6W              81 80   60/ 10/ 12 1020.2
DRY TORTUGAS               82      80/ 17/ 19 1019.4R
SAND KEY                   82                 1019.8R
SOMBRERO KEY               83      50/ 16/ 18 1019.4R
LONG KEY                   83 83  100/ 15/ 17 1020.3R
MOLASSES REEF              83 83   90/ 13/ 15 1020.7R

$$
FLZ067-068-071>074-168-172>174-181500-
SOUTHEAST FLORIDA

CITY           SKY/WX    TMP DP  RH WIND       PRES   REMARKS
W PALM BEACH   FAIR      84  75  74 E15       30.16R
BOCA RATON     MOSUNNY   84  75  74 E14       30.16R
FT LAUDER-EXEC FAIR      84  77  79 E16       30.15R
FT LAUDERDALE  FAIR      85  78  80 E15       30.14R HX  96
POMPANO BEACH  FAIR      86  75  69 E14       30.15R HX  95
PEMBROKE PINES FAIR      85  75  72 E15       30.16R
OPA LOCKA      FAIR      86  76  71 E14       30.15R HX  96
MIAMI          PTSUNNY   83  75  77 E13       30.15R
WEST KENDALL   FAIR      86  74  67 E15       30.14R
HOMESTEAD      FAIR      84  75  72 E12       30.14R

STATION/POSITION SKY/WX   TEMP    WIND        PRES    WAVE   SWELL
                          AIR SEA DIR/SP/G            HT/PER HT/PER
                          (F)     (DEG/KT/KT) (MB)    (FT/S) (FT/S)
PORT EVERGLADES            83      80/  7/ 10 1020.2
VIRGINIA KEY               83 84   60/ 14/ 18 1020.4R
LAKE WORTH                 82 83  100/ 11/ 13 1022.4R
SETTLEMENT POINT           81     100/ 10/ 13 1021.3R

$$



ASUS62 KTBW 181418
RTPTBW
Regional Temperature and Precipitation Summary
National Weather Service Tampa Bay Area - Ruskin FL
1018 AM EDT Thu Oct 18 2018

:                                  HIGH         LOW       24 HOUR
:                                YESTERDAY   OVERNIGHT    RAINFALL
:   AIRPORT OBSERVATIONS                   8 PM TO 8 AM   TO 8 AM
:
.BR TBW 1018 E DH00/TAIRZX/DH07/TAIRZP/PPDRZZ
:
BKV : Brooksville              :    93     /     66    /    0.00
FMY : Fort Myers/Page Field    :    91     /     74    /    0.00
RSW : Fort Myers/SW Int Apt    :    92     /     74    /    0.01
PGD : Punta Gorda              :    94     /     73    /    0.00
SRQ : Sarasota/Bradenton Apt   :    92     /     72    /    0.00
SPG : St Pete/Albert Whitted   :    91     /     78    /    0.00
PIE : St Pete/Clearwater Apt   :    89     /      M    /    0.00
TPA : Tampa International Apt  :    92     /     75    /    0.00
GIF : Winter Haven/Gilbert Apt :    94     /     74    /    0.00
:
.END
:
:COOPERATIVE                             YEST     MORN    24 HOUR
:OBSERVATIONS            REPORT TIME     HIGH     LOW     RAINFALL
:
.B TBW 1018 E DH07/TAIRZX/TAIRZN/PPDRZZ
ACHF1: Archbold         Thu 08:00 AM  :   92   /   68   /   0.00
INVF1: Inverness        Thu 09:20 AM  :   92   /   66   /   0.00
:
.END
:
:USGS GAGES                                PCPN
.BR TBW 1018 E DH07/PPDRZZ
:
:LEVY COUNTY
GULF1: Gulf Hammock 4SW              :        M
SWNF1: Suwannee 6NE                  :     0.00
:
:HERNANDO COUNTY
RERF1: Rerdell                       :        M
:
:PINELLAS COUNTY
KAPF1: Clearwater 3E                 :     0.00
CCKF1: Dunedin                       :     0.00
CRCF1: Dunedin 1SE                   :     0.00
MKYF1: Largo                         :     0.00
TBFF1: Oldsmar 2NW                   :     0.00
SJOF1: Pinellas Park                 :        M
RRCF1: Pinellas Park 2N              :        M
PNBF1: Pinellas Park                 :     0.00
BTRF1: Tarpon Springs                :     0.00
:
:HILLSBOROUGH COUNTY
ASPF1: Fort Lonesome                 :     0.00
KNTF1: Knights 4NE                   :     0.00
LITF1: Lithia                        :     0.00
TBFF1: Oldsmar 2NW                   :     0.00
OLDF1: Oldsmar 3NE                   :     0.00
RHPF1: Sulphur Springs 3NW           :     0.00
DLYF1: Tampa/Delaney Creek           :        M
DLNF1: Tampa/Delaney Creek           :     0.00
NACF1: Tampa/Progress Blvd           :     0.00
ELRF1: Tampa/East Lake               :     0.00
TMTF1: Tampa Dam                     :     0.00
MORF1: Thonotosassa 3N               :     0.00
WIMF1: Wimauma 4SW                   :     0.00
:
:POLK COUNTY
BARF1: Bartow                        :     0.00
FTMF1: Fort Meade                    :     0.00
:
:MANATEE COUNTY
LWDF1: Lake Ward/Bradenton 5SE       :     0.00
FRUF1: Lorraine 1SW                  :     0.00
MKHF1: Myakka Head 8W                :     0.00
:
:SARASOTA COUNTY
MKCF1: Myakka State Park             :        M
NPOF1: North Port 2N                 :     0.00
NPRF1: North Port                    :     0.00
:
:HIGHLANDS COUNTY
LWEF1: Sebring 4SE                   :     0.00
IDRF1: Brighton 6NW                  :     0.00
IDPF1: Brighton 7NW                  :     0.00
SKRF1: Brighton 7E                   :     0.00
LISF1: Lake Placid 7NE               :     0.00
:
:CHARLOTTE COUNTY
CPWF1: Cape Coral                    :     0.01
PUNF1: Punta Gorda 8NE               :        M
:
:LEE COUNTY
OLGF1: Buckingham                    :        M
.END


These data are preliminary and have not undergone final quality
control by the National Centers for Environmental Information
(NCEI). Therefore these data are subject to revision. Final and
 certified climate data can be accessed at www.ncdc.noaa.gov


$$


























Office: EYW